TITAN 3A DEB (TRUSS), 1000

Orbit data source: Space-Track

TITAN 3A DEB (TRUSS), 1000 is space debris in LEO originally from a launch on Thu, 11 Feb 1965 UTC launched from the Air Force Eastern Test Range (AFETR). Debris objects in space refer to the collection of defunct objects orbiting the Earth. Examples of debris include non-operational satellites, rocket bodies, and fragments generated from explosions, collisions, or faulty payload assembly.

Loading next visibility...
Identifier
1000, 1965-008B
Orbit
LEO
Country
Flag of USUS
Related business
Manufacturer
Martin Marietta
Mission
Spacecraft
Bus & Motor
TRANSTAGE, Unknown motor
Mass
1,950 kg wet, 1,950 kg dry
Launch date (UTC)
1965-02-11 (61 years ago)
Launch vehicle
Unknown
Launch site
Air Force Eastern Test Range (AFETR)
Object type
Payload
Rocket body
Debris
Shape & HBR
Unknown
Radar Cross Section
Large (>1 m²)

Expand to show TLE details & history
Last TLE update: 10 hours ago

TLE from 10 hours ago
0 TITAN 3A DEB (TRUSS)
1  1000U 65008B   26036.33675399  .00000019  00000-0  13458-2 0  9995
2  1000  32.1443 288.4447 0011699 255.8166 104.1032  9.88891282204301
Epoch: 2026-02-05T08:04Z
TLE epoch observation values (Epoch: 2026-02-05T08:04:55.544Z)
Latitude
0.00002°
Longitude
31.72286°
Altitude
2,792.044 km
Speed
6.594 km/s
True Right ascension
19h 13m 46s
True Declination
0° 00' 00"
Sunlit
Object was in daylight at epoch
Visualization orbit readout
Latitude
Unknown
Longitude
Unknown
Altitude
Unknown
Speed
Unknown
Apparent Right ascension
Unknown
Apparent Declination
Unknown
Sunlit
N/A
Visualization observer readout
Local Sidereal Time
20:15:19
Azimuth
Unknown
Elevation
Unknown
Doppler factor
Unknown
Orbital elements
Apogee altitude
2,803.958 km
Perigee altitude
2,782.499 km
Semi-major axis
9,171.366 km
Eccentricity
0.00117
Inclination
32.1443°
RAAN
288.4447°
Arg. of periapsis
255.8166°
True anomaly
104.23317°
Mean anomaly
104.1032°
Eccentric anomaly
104.16819°
Mean motion
2.47111 °/min
Orbital period
145.68 mins
BSTAR
0.0013458
Loading maneuver chart data...
Computing Atmospheric mass density...
Loading historical data...
Loading historical data...
Loading historical data...
Loading historical data...
Loading historical data...
Loading historical data...
Loading historical data...
Other satellites on launch #8 in the year 1965 (1965-02-11 UTC)

Documentation

Showing up to 5 results
|